Time,TemperatureF,DewpointF,PressureIn,WindDirection,WindDirectionDegrees,WindSpeedMPH,WindSpeedGustMPH,Humidity,HourlyPrecipIn,Conditions,Clouds,dailyrainin,SoftwareType,DateUTC
2013-03-02 00:00:00,24.9,21.9,30.07,West,270,1.0,5.0,88,0.00,,---,0.00,VWS V14.01,2013-03-02 05:00:00,
2013-03-02 00:05:00,24.9,21.9,30.08,WSW,248,1.0,5.0,88,0.00,,---,0.00,VWS V14.01,2013-03-02 05:05:00,
2013-03-02 00:10:00,24.9,21.6,30.07,WSW,248,3.0,6.0,87,0.00,,---,0.00,VWS V14.01,2013-03-02 05:10:00,
2013-03-02 00:15:00,24.9,21.9,30.08,WSW,248,2.0,5.0,88,0.00,,---,0.00,VWS V14.01,2013-03-02 05:15:00,
2013-03-02 00:20:00,24.9,21.9,30.07,WSW,248,1.0,5.0,88,0.00,,---,0.00,VWS V14.01,2013-03-02 05:20:00,
2013-03-02 00:25:00,24.9,21.6,30.07,WSW,248,2.0,7.0,87,0.00,,---,0.00,VWS V14.01,2013-03-02 05:25:00,
2013-03-02 00:30:00,24.8,21.5,30.07,West,270,0.0,3.0,87,0.00,,---,0.00,VWS V14.01,2013-03-02 05:30:00,
2013-03-02 00:35:00,24.8,21.5,30.07,West,270,0.0,2.0,87,0.00,,---,0.00,VWS V14.01,2013-03-02 05:35:00,
2013-03-02 00:40:00,24.9,21.6,30.07,West,270,0.0,0.0,87,0.00,,---,0.00,VWS V14.01,2013-03-02 05:40:00,
2013-03-02 00:45:00,24.9,21.6,30.06,West,270,0.0,0.0,87,0.00,,---,0.00,VWS V14.01,2013-03-02 05:45:00,
2013-03-02 00:50:00,24.9,21.3,30.06,West,270,0.0,2.0,86,0.00,,---,0.00,VWS V14.01,2013-03-02 05:50:00,
2013-03-02 00:55:00,24.9,21.6,30.06,West,270,0.0,0.0,87,0.00,,---,0.00,VWS V14.01,2013-03-02 05:55:00,
2013-03-02 01:00:00,24.9,21.6,30.06,West,270,0.0,0.0,87,0.00,,---,0.00,VWS V14.01,2013-03-02 06:00:00,
2013-03-02 01:05:00,25.0,21.4,30.06,West,270,0.0,1.0,86,0.00,,---,0.00,VWS V14.01,2013-03-02 06:05:00,
2013-03-02 01:10:00,25.0,21.7,30.06,West,270,0.0,0.0,87,0.00,,---,0.00,VWS V14.01,2013-03-02 06:10:00,
2013-03-02 01:15:00,25.1,21.5,30.06,West,270,0.0,1.0,86,0.00,,---,0.00,VWS V14.01,2013-03-02 06:15:00,
2013-03-02 01:20:00,25.1,21.5,30.06,West,270,0.0,2.0,86,0.00,,---,0.00,VWS V14.01,2013-03-02 06:20:00,
2013-03-02 01:25:00,25.1,21.8,30.06,West,270,1.0,4.0,87,0.00,,---,0.00,VWS V14.01,2013-03-02 06:25:00,
2013-03-02 01:30:00,25.1,21.5,30.06,WSW,248,2.0,5.0,86,0.00,,---,0.00,VWS V14.01,2013-03-02 06:30:00,
2013-03-02 01:35:00,25.1,21.5,30.06,West,270,1.0,5.0,86,0.00,,---,0.00,VWS V14.01,2013-03-02 06:35:00,
2013-03-02 01:40:00,25.1,21.8,30.06,West,270,0.0,1.0,87,0.00,,---,0.00,VWS V14.01,2013-03-02 06:40:00,
2013-03-02 01:45:00,25.1,21.8,30.06,West,270,0.0,0.0,87,0.00,,---,0.00,VWS V14.01,2013-03-02 06:45:00,
2013-03-02 01:50:00,25.1,21.8,30.06,West,270,0.0,1.0,87,0.00,,---,0.00,VWS V14.01,2013-03-02 06:50:00,
2013-03-02 01:55:00,25.2,22.1,30.06,West,270,0.0,0.0,88,0.00,,---,0.00,VWS V14.01,2013-03-02 06:55:00,
2013-03-02 02:00:00,25.2,21.9,30.07,West,270,0.0,1.0,87,0.00,,---,0.00,VWS V14.01,2013-03-02 07:00:00,
2013-03-02 02:05:00,25.2,21.9,30.07,West,270,0.0,2.0,87,0.00,,---,0.00,VWS V14.01,2013-03-02 07:05:00,
2013-03-02 02:10:00,25.2,21.9,30.06,West,270,0.0,3.0,87,0.00,,---,0.00,VWS V14.01,2013-03-02 07:10:00,
2013-03-02 02:15:00,25.2,22.1,30.06,West,270,0.0,0.0,88,0.00,,---,0.00,VWS V14.01,2013-03-02 07:15:00,
2013-03-02 02:20:00,25.2,22.1,30.06,West,270,0.0,1.0,88,0.00,,---,0.00,VWS V14.01,2013-03-02 07:20:00,
2013-03-02 02:25:00,25.2,22.1,30.06,West,270,0.0,2.0,88,0.00,,---,0.00,VWS V14.01,2013-03-02 07:25:00,
2013-03-02 02:30:00,25.2,22.1,30.06,West,270,0.0,1.0,88,0.00,,---,0.00,VWS V14.01,2013-03-02 07:30:00,
2013-03-02 02:35:00,25.2,22.1,30.06,West,270,0.0,0.0,88,0.00,,---,0.00,VWS V14.01,2013-03-02 07:35:00,
2013-03-02 02:40:00,25.2,22.1,30.06,West,270,0.0,0.0,88,0.00,,---,0.00,VWS V14.01,2013-03-02 07:40:00,
2013-03-02 02:45:00,25.3,22.2,30.06,West,270,1.0,3.0,88,0.00,,---,0.00,VWS V14.01,2013-03-02 07:45:00,
2013-03-02 02:50:00,25.3,22.2,30.06,West,270,0.0,2.0,88,0.00,,---,0.00,VWS V14.01,2013-03-02 07:50:00,
2013-03-02 02:55:00,25.3,22.2,30.06,West,270,1.0,3.0,88,0.00,,---,0.00,VWS V14.01,2013-03-02 07:55:00,
2013-03-02 03:00:00,25.3,22.2,30.05,West,270,0.0,1.0,88,0.00,,---,0.00,VWS V14.01,2013-03-02 08:00:00,
2013-03-02 03:05:00,25.3,22.2,30.05,West,270,0.0,0.0,88,0.00,,---,0.00,VWS V14.01,2013-03-02 08:05:00,
2013-03-02 03:10:00,25.3,22.2,30.05,West,270,0.0,0.0,88,0.00,,---,0.00,VWS V14.01,2013-03-02 08:10:00,
2013-03-02 03:15:00,25.3,22.2,30.05,West,270,0.0,0.0,88,0.00,,---,0.00,VWS V14.01,2013-03-02 08:15:00,
2013-03-02 03:20:00,25.3,22.2,30.05,West,270,0.0,1.0,88,0.00,,---,0.00,VWS V14.01,2013-03-02 08:20:00,
2013-03-02 03:25:00,25.3,22.2,30.05,West,270,0.0,1.0,88,0.00,,---,0.00,VWS V14.01,2013-03-02 08:25:00,
2013-03-02 03:30:00,25.3,22.2,30.04,West,270,0.0,2.0,88,0.00,,---,0.00,VWS V14.01,2013-03-02 08:30:00,
2013-03-02 03:35:00,25.3,22.2,30.04,West,270,0.0,1.0,88,0.00,,---,0.00,VWS V14.01,2013-03-02 08:35:00,
2013-03-02 03:40:00,25.3,22.5,30.04,West,270,0.0,2.0,89,0.00,,---,0.00,VWS V14.01,2013-03-02 08:40:00,
2013-03-02 03:45:00,25.3,22.5,30.04,West,270,0.0,1.0,89,0.00,,---,0.00,VWS V14.01,2013-03-02 08:45:00,
2013-03-02 03:50:00,25.3,22.5,30.04,West,270,0.0,0.0,89,0.00,,---,0.00,VWS V14.01,2013-03-02 08:50:00,
2013-03-02 03:55:00,25.3,22.5,30.04,West,270,0.0,0.0,89,0.00,,---,0.00,VWS V14.01,2013-03-02 08:55:00,
2013-03-02 04:00:00,25.3,22.5,30.04,WSW,248,0.0,2.0,89,0.00,,---,0.00,VWS V14.01,2013-03-02 09:00:00,
2013-03-02 04:05:00,25.3,22.8,30.04,WSW,248,0.0,2.0,90,0.00,,---,0.00,VWS V14.01,2013-03-02 09:05:00,
2013-03-02 04:10:00,25.3,22.8,30.04,WSW,248,0.0,1.0,90,0.00,,---,0.00,VWS V14.01,2013-03-02 09:10:00,
2013-03-02 04:15:00,25.3,22.8,30.04,WSW,248,0.0,2.0,90,0.00,,---,0.00,VWS V14.01,2013-03-02 09:15:00,
2013-03-02 04:20:00,25.3,23.0,30.04,WSW,248,0.0,1.0,91,0.00,,---,0.00,VWS V14.01,2013-03-02 09:20:00,
2013-03-02 04:25:00,25.3,23.0,30.04,WSW,248,0.0,2.0,91,0.00,,---,0.00,VWS V14.01,2013-03-02 09:25:00,
2013-03-02 04:30:00,25.3,23.0,30.04,WSW,248,1.0,2.0,91,0.00,,---,0.00,VWS V14.01,2013-03-02 09:30:00,
2013-03-02 04:35:00,25.2,23.0,30.04,WSW,248,0.0,0.0,91,0.00,,---,0.00,VWS V14.01,2013-03-02 09:35:00,
2013-03-02 04:40:00,25.3,23.0,30.04,WSW,248,0.0,3.0,91,0.00,,---,0.00,VWS V14.01,2013-03-02 09:40:00,
2013-03-02 04:45:00,25.3,23.0,30.04,WSW,248,0.0,1.0,91,0.00,,---,0.00,VWS V14.01,2013-03-02 09:45:00,
2013-03-02 04:50:00,25.3,23.0,30.04,WSW,248,0.0,2.0,91,0.00,,---,0.00,VWS V14.01,2013-03-02 09:50:00,
2013-03-02 04:55:00,25.3,23.0,30.04,WSW,248,0.0,2.0,91,0.00,,---,0.00,VWS V14.01,2013-03-02 09:55:00,
2013-03-02 05:00:00,25.3,23.0,30.04,WSW,248,2.0,9.0,91,0.00,,---,0.00,VWS V14.01,2013-03-02 10:00:00,
2013-03-02 05:05:00,25.2,23.2,30.04,WSW,248,1.0,5.0,92,0.00,,---,0.00,VWS V14.01,2013-03-02 10:05:00,
2013-03-02 05:10:00,25.2,23.2,30.04,WSW,248,0.0,2.0,92,0.00,,---,0.00,VWS V14.01,2013-03-02 10:10:00,
2013-03-02 05:15:00,25.2,23.2,30.05,WSW,248,0.0,2.0,92,0.00,,---,0.00,VWS V14.01,2013-03-02 10:15:00,
2013-03-02 05:20:00,25.1,22.9,30.05,WSW,248,1.0,4.0,91,0.00,,---,0.00,VWS V14.01,2013-03-02 10:20:00,
2013-03-02 05:25:00,25.0,23.0,30.04,WSW,248,0.0,0.0,92,0.00,,---,0.00,VWS V14.01,2013-03-02 10:25:00,
2013-03-02 05:30:00,25.0,22.8,30.04,WSW,248,1.0,4.0,91,0.00,,---,0.00,VWS V14.01,2013-03-02 10:30:00,
2013-03-02 05:35:00,24.9,22.6,30.04,WSW,248,0.0,3.0,91,0.00,,---,0.00,VWS V14.01,2013-03-02 10:35:00,
2013-03-02 05:40:00,24.9,22.6,30.05,WSW,248,1.0,4.0,91,0.00,,---,0.00,VWS V14.01,2013-03-02 10:40:00,
2013-03-02 05:45:00,24.9,22.6,30.05,WSW,248,0.0,3.0,91,0.00,,---,0.00,VWS V14.01,2013-03-02 10:45:00,
2013-03-02 05:50:00,24.9,22.6,30.05,WSW,248,0.0,2.0,91,0.00,,---,0.00,VWS V14.01,2013-03-02 10:50:00,
2013-03-02 05:55:00,24.9,22.6,30.05,WNW,292,0.0,3.0,91,0.00,,---,0.00,VWS V14.01,2013-03-02 10:55:00,
2013-03-02 06:00:00,24.9,22.6,30.04,WNW,292,0.0,1.0,91,0.00,,---,0.00,VWS V14.01,2013-03-02 11:00:00,
2013-03-02 06:05:00,24.9,22.6,30.04,West,270,1.0,4.0,91,0.00,,---,0.00,VWS V14.01,2013-03-02 11:05:00,
2013-03-02 06:10:00,24.9,22.4,30.04,West,270,0.0,3.0,90,0.00,,---,0.00,VWS V14.01,2013-03-02 11:10:00,
2013-03-02 06:15:00,24.9,22.4,30.05,West,270,2.0,4.0,90,0.00,,---,0.00,VWS V14.01,2013-03-02 11:15:00,
2013-03-02 06:20:00,24.8,22.3,30.05,WSW,248,2.0,5.0,90,0.00,,---,0.00,VWS V14.01,2013-03-02 11:20:00,
2013-03-02 06:25:00,24.7,21.9,30.05,WSW,248,2.0,6.0,89,0.00,,---,0.00,VWS V14.01,2013-03-02 11:25:00,
2013-03-02 06:30:00,24.6,21.8,30.05,WSW,248,1.0,4.0,89,0.00,,---,0.00,VWS V14.01,2013-03-02 11:30:00,
2013-03-02 06:35:00,24.5,21.7,30.04,WSW,248,1.0,3.0,89,0.00,,---,0.00,VWS V14.01,2013-03-02 11:35:00,
2013-03-02 06:40:00,24.5,21.7,30.04,West,270,1.0,4.0,89,0.00,,---,0.00,VWS V14.01,2013-03-02 11:40:00,
2013-03-02 06:45:00,24.5,21.7,30.04,West,270,0.0,2.0,89,0.00,,---,0.00,VWS V14.01,2013-03-02 11:45:00,
2013-03-02 06:50:00,24.5,21.7,30.05,West,270,1.0,4.0,89,0.00,,---,0.00,VWS V14.01,2013-03-02 11:50:00,
2013-03-02 06:55:00,24.5,21.7,30.04,West,270,1.0,4.0,89,0.00,,---,0.00,VWS V14.01,2013-03-02 11:55:00,
2013-03-02 07:00:00,24.4,21.6,30.04,WSW,248,1.0,4.0,89,0.00,,---,0.00,VWS V14.01,2013-03-02 12:00:00,
2013-03-02 07:05:00,24.4,21.6,30.05,WSW,248,1.0,4.0,89,0.00,,---,0.00,VWS V14.01,2013-03-02 12:05:00,
2013-03-02 07:10:00,24.3,21.5,30.05,West,270,2.0,5.0,89,0.00,,---,0.00,VWS V14.01,2013-03-02 12:10:00,
2013-03-02 07:15:00,24.3,21.5,30.05,West,270,1.0,5.0,89,0.00,,---,0.00,VWS V14.01,2013-03-02 12:15:00,
2013-03-02 07:20:00,24.3,21.5,30.05,West,270,0.0,3.0,89,0.00,,---,0.00,VWS V14.01,2013-03-02 12:20:00,
2013-03-02 07:25:00,24.4,21.6,30.05,West,270,1.0,4.0,89,0.00,,---,0.00,VWS V14.01,2013-03-02 12:25:00,
2013-03-02 07:30:00,24.3,21.5,30.05,WSW,248,3.0,7.0,89,0.00,,---,0.00,VWS V14.01,2013-03-02 12:30:00,
2013-03-02 07:35:00,24.3,21.8,30.05,WSW,248,1.0,4.0,90,0.00,,---,0.00,VWS V14.01,2013-03-02 12:35:00,
2013-03-02 07:40:00,24.3,21.5,30.06,WSW,248,3.0,7.0,89,0.00,,---,0.00,VWS V14.01,2013-03-02 12:40:00,
2013-03-02 07:45:00,24.3,21.8,30.06,West,270,2.0,5.0,90,0.00,,---,0.00,VWS V14.01,2013-03-02 12:45:00,
2013-03-02 07:50:00,24.1,21.6,30.06,WSW,248,3.0,7.0,90,0.00,,---,0.00,VWS V14.01,2013-03-02 12:50:00,
2013-03-02 07:55:00,24.1,21.9,30.05,WSW,248,1.0,9.0,91,0.00,,---,0.00,VWS V14.01,2013-03-02 12:55:00,
2013-03-02 08:00:00,24.1,21.9,30.05,WSW,248,2.0,6.0,91,0.00,,---,0.00,VWS V14.01,2013-03-02 13:00:00,
2013-03-02 08:05:00,24.0,21.8,30.06,SW,225,2.0,6.0,91,0.00,,---,0.00,VWS V14.01,2013-03-02 13:05:00,
2013-03-02 08:10:00,23.8,21.3,30.06,WSW,248,4.0,10.0,90,0.00,,---,0.00,VWS V14.01,2013-03-02 13:10:00,
2013-03-02 08:15:00,23.6,21.4,30.06,WSW,248,2.0,11.0,91,0.00,,---,0.00,VWS V14.01,2013-03-02 13:15:00,
2013-03-02 08:20:00,23.6,21.4,30.06,WSW,248,2.0,5.0,91,0.00,,---,0.00,VWS V14.01,2013-03-02 13:20:00,
2013-03-02 08:25:00,23.6,21.4,30.06,SW,225,1.0,4.0,91,0.00,,---,0.00,VWS V14.01,2013-03-02 13:25:00,
2013-03-02 08:30:00,23.5,21.3,30.06,WSW,248,1.0,4.0,91,0.00,,---,0.00,VWS V14.01,2013-03-02 13:30:00,
2013-03-02 08:35:00,23.4,21.2,30.06,WSW,248,3.0,7.0,91,0.00,,---,0.00,VWS V14.01,2013-03-02 13:35:00,
2013-03-02 08:40:00,23.3,21.1,30.07,WSW,248,2.0,6.0,91,0.00,,---,0.00,VWS V14.01,2013-03-02 13:40:00,
2013-03-02 08:45:00,23.4,21.4,30.07,WSW,248,2.0,6.0,92,0.00,,---,0.00,VWS V14.01,2013-03-02 13:45:00,
2013-03-02 08:50:00,23.3,21.1,30.06,WSW,248,3.0,8.0,91,0.00,,---,0.00,VWS V14.01,2013-03-02 13:50:00,
2013-03-02 08:55:00,23.3,21.3,30.06,WSW,248,3.0,5.0,92,0.00,,---,0.00,VWS V14.01,2013-03-02 13:55:00,
2013-03-02 09:00:00,23.3,21.3,30.06,West,270,1.0,4.0,92,0.00,,---,0.00,VWS V14.01,2013-03-02 14:00:00,
2013-03-02 09:05:00,23.5,21.5,30.06,WSW,248,2.0,6.0,92,0.00,,---,0.00,VWS V14.01,2013-03-02 14:05:00,
2013-03-02 09:10:00,23.5,21.5,30.06,WSW,248,1.0,6.0,92,0.00,,---,0.00,VWS V14.01,2013-03-02 14:10:00,
2013-03-02 09:15:00,23.5,21.5,30.06,WSW,248,2.0,5.0,92,0.00,,---,0.00,VWS V14.01,2013-03-02 14:15:00,
2013-03-02 09:20:00,23.5,21.5,30.06,West,270,2.0,6.0,92,0.00,,---,0.00,VWS V14.01,2013-03-02 14:20:00,
2013-03-02 09:25:00,23.5,21.5,30.06,WSW,248,1.0,4.0,92,0.00,,---,0.00,VWS V14.01,2013-03-02 14:25:00,
2013-03-02 09:30:00,23.6,21.6,30.06,WSW,248,1.0,4.0,92,0.00,,---,0.00,VWS V14.01,2013-03-02 14:30:00,
2013-03-02 09:35:00,23.6,21.4,30.06,West,270,2.0,7.0,91,0.00,,---,0.00,VWS V14.01,2013-03-02 14:35:00,
2013-03-02 09:40:00,23.7,21.5,30.06,WSW,248,0.0,4.0,91,0.00,,---,0.00,VWS V14.01,2013-03-02 14:40:00,
2013-03-02 09:45:00,23.8,21.6,30.06,WSW,248,2.0,4.0,91,0.00,,---,0.00,VWS V14.01,2013-03-02 14:45:00,
2013-03-02 09:50:00,23.9,21.7,30.06,WSW,248,1.0,3.0,91,0.00,,---,0.00,VWS V14.01,2013-03-02 14:50:00,
2013-03-02 09:55:00,24.1,21.3,30.06,WSW,248,3.0,9.0,89,0.00,,---,0.00,VWS V14.01,2013-03-02 14:55:00,
2013-03-02 10:00:00,24.3,21.5,30.05,WSW,248,3.0,9.0,89,0.00,,---,0.00,VWS V14.01,2013-03-02 15:00:00,
2013-03-02 10:05:00,24.3,21.0,30.06,West,270,5.0,9.0,87,0.00,,---,0.00,VWS V14.01,2013-03-02 15:05:00,
2013-03-02 10:10:00,24.4,21.4,30.05,WSW,248,1.0,5.0,88,0.00,,---,0.00,VWS V14.01,2013-03-02 15:10:00,
2013-03-02 10:15:00,24.6,21.3,30.05,WSW,248,3.0,7.0,87,0.00,,---,0.00,VWS V14.01,2013-03-02 15:15:00,
2013-03-02 10:20:00,24.8,20.9,30.05,WSW,248,3.0,7.0,85,0.00,,---,0.00,VWS V14.01,2013-03-02 15:20:00,
2013-03-02 10:25:00,24.9,21.0,30.05,WSW,248,2.0,7.0,85,0.00,,---,0.00,VWS V14.01,2013-03-02 15:25:00,
2013-03-02 10:30:00,25.1,21.0,30.05,West,270,3.0,9.0,84,0.00,,---,0.00,VWS V14.01,2013-03-02 15:30:00,
2013-03-02 10:35:00,25.7,21.3,30.05,SSE,158,1.0,5.0,83,0.00,,---,0.00,VWS V14.01,2013-03-02 15:35:00,
2013-03-02 10:40:00,25.5,21.1,30.05,WSW,248,5.0,13.0,83,0.00,,---,0.00,VWS V14.01,2013-03-02 15:40:00,
2013-03-02 10:45:00,25.3,21.1,30.05,WSW,248,1.0,7.0,84,0.00,,---,0.00,VWS V14.01,2013-03-02 15:45:00,
2013-03-02 10:50:00,25.2,21.0,30.05,WSW,248,1.0,5.0,84,0.00,,---,0.00,VWS V14.01,2013-03-02 15:50:00,
2013-03-02 10:55:00,25.3,20.0,30.05,WSW,248,5.0,12.0,80,0.00,,---,0.00,VWS V14.01,2013-03-02 15:55:00,
2013-03-02 11:00:00,25.4,20.1,30.05,SW,225,2.0,10.0,80,0.00,,---,0.00,VWS V14.01,2013-03-02 16:00:00,
2013-03-02 11:05:00,26.1,20.8,30.05,South,180,1.0,6.0,80,0.00,,---,0.00,VWS V14.01,2013-03-02 16:05:00,
2013-03-02 11:10:00,26.4,20.5,30.05,WSW,248,3.0,8.0,78,0.00,,---,0.00,VWS V14.01,2013-03-02 16:10:00,
2013-03-02 11:15:00,26.3,20.7,30.05,WSW,248,2.0,10.0,79,0.00,,---,0.00,VWS V14.01,2013-03-02 16:15:00,
2013-03-02 11:20:00,26.4,20.5,30.05,WSW,248,4.0,11.0,78,0.00,,---,0.00,VWS V14.01,2013-03-02 16:20:00,
2013-03-02 11:25:00,26.6,20.4,30.05,WSW,248,3.0,10.0,77,0.00,,---,0.00,VWS V14.01,2013-03-02 16:25:00,
2013-03-02 11:30:00,26.7,19.9,30.05,WSW,248,4.0,7.0,75,0.00,,---,0.00,VWS V14.01,2013-03-02 16:30:00,
2013-03-02 11:35:00,26.7,20.5,30.05,West,270,3.0,7.0,77,0.00,,---,0.00,VWS V14.01,2013-03-02 16:35:00,
2013-03-02 11:40:00,26.8,20.9,30.05,WSW,248,2.0,7.0,78,0.00,,---,0.00,VWS V14.01,2013-03-02 16:40:00,
2013-03-02 11:45:00,26.6,21.0,30.05,WSW,248,3.0,10.0,79,0.00,,---,0.00,VWS V14.01,2013-03-02 16:45:00,
2013-03-02 11:50:00,26.3,21.9,30.05,WSW,248,2.0,11.0,83,0.00,,---,0.00,VWS V14.01,2013-03-02 16:50:00,
2013-03-02 11:55:00,26.2,22.0,30.05,WSW,248,3.0,8.0,84,0.00,,---,0.00,VWS V14.01,2013-03-02 16:55:00,
2013-03-02 12:00:00,26.3,22.1,30.05,WSW,248,3.0,10.0,84,0.00,,---,0.00,VWS V14.01,2013-03-02 17:00:00,
2013-03-02 12:05:00,26.6,21.6,30.05,WSW,248,4.0,11.0,81,0.00,,---,0.00,VWS V14.01,2013-03-02 17:05:00,
2013-03-02 12:10:00,27.1,22.1,30.05,WSW,248,2.0,7.0,81,0.00,,---,0.00,VWS V14.01,2013-03-02 17:10:00,
2013-03-02 12:15:00,27.5,21.5,30.05,WSW,248,3.0,10.0,78,0.00,,---,0.00,VWS V14.01,2013-03-02 17:15:00,
2013-03-02 12:20:00,27.5,21.9,30.05,WSW,248,1.0,4.0,79,0.00,,---,0.00,VWS V14.01,2013-03-02 17:20:00,
2013-03-02 12:25:00,27.2,21.9,30.05,WSW,248,4.0,10.0,80,0.00,,---,0.00,VWS V14.01,2013-03-02 17:25:00,
2013-03-02 12:30:00,26.9,22.1,30.05,WSW,248,2.0,6.0,82,0.00,,---,0.00,VWS V14.01,2013-03-02 17:30:00,
2013-03-02 12:35:00,26.8,22.3,30.05,WSW,248,2.0,7.0,83,0.00,,---,0.00,VWS V14.01,2013-03-02 17:35:00,
2013-03-02 12:40:00,26.5,21.5,30.05,WSW,248,2.0,7.0,81,0.00,,---,0.00,VWS V14.01,2013-03-02 17:40:00,
2013-03-02 12:45:00,26.4,22.0,30.04,WSW,248,1.0,4.0,83,0.00,,---,0.00,VWS V14.01,2013-03-02 17:45:00,
2013-03-02 12:50:00,26.9,22.7,30.04,WSW,248,1.0,7.0,84,0.00,,---,0.00,VWS V14.01,2013-03-02 17:50:00,
2013-03-02 12:55:00,27.1,22.4,30.04,WSW,248,2.0,8.0,82,0.00,,---,0.00,VWS V14.01,2013-03-02 17:55:00,
2013-03-02 13:00:00,27.1,21.8,30.04,West,270,5.0,11.0,80,0.00,,---,0.00,VWS V14.01,2013-03-02 18:00:00,
2013-03-02 13:05:00,27.1,22.1,30.04,WSW,248,2.0,7.0,81,0.00,,---,0.00,VWS V14.01,2013-03-02 18:05:00,
2013-03-02 13:10:00,26.9,22.1,30.04,WSW,248,3.0,9.0,82,0.00,,---,0.00,VWS V14.01,2013-03-02 18:10:00,
2013-03-02 13:15:00,27.0,22.5,30.03,West,270,1.0,3.0,83,0.00,,---,0.00,VWS V14.01,2013-03-02 18:15:00,
2013-03-02 13:20:00,27.2,22.1,30.03,West,270,2.0,6.0,81,0.00,,---,0.00,VWS V14.01,2013-03-02 18:20:00,
2013-03-02 13:25:00,27.5,22.1,30.03,West,270,1.0,6.0,80,0.00,,---,0.00,VWS V14.01,2013-03-02 18:25:00,
2013-03-02 13:30:00,27.7,21.4,30.03,WSW,248,3.0,9.0,77,0.00,,---,0.00,VWS V14.01,2013-03-02 18:30:00,
2013-03-02 13:35:00,27.9,22.2,30.03,WSW,248,2.0,6.0,79,0.00,,---,0.00,VWS V14.01,2013-03-02 18:35:00,
2013-03-02 13:40:00,27.9,21.9,30.03,WSW,248,2.0,6.0,78,0.00,,---,0.00,VWS V14.01,2013-03-02 18:40:00,
2013-03-02 13:45:00,27.8,21.9,30.03,WSW,248,2.0,6.0,78,0.00,,---,0.00,VWS V14.01,2013-03-02 18:45:00,
2013-03-02 13:50:00,27.5,22.1,30.03,WSW,248,3.0,13.0,80,0.00,,---,0.00,VWS V14.01,2013-03-02 18:50:00,
2013-03-02 13:55:00,27.1,21.8,30.03,WSW,248,2.0,6.0,80,0.00,,---,0.00,VWS V14.01,2013-03-02 18:55:00,
2013-03-02 14:00:00,27.1,22.1,30.03,WSW,248,2.0,7.0,81,0.00,,---,0.00,VWS V14.01,2013-03-02 19:00:00,
2013-03-02 14:05:00,27.5,22.5,30.02,WSW,248,2.0,11.0,81,0.00,,---,0.00,VWS V14.01,2013-03-02 19:05:00,
2013-03-02 14:10:00,27.6,22.5,30.02,WSW,248,4.0,11.0,81,0.00,,---,0.00,VWS V14.01,2013-03-02 19:10:00,
2013-03-02 14:15:00,27.6,22.8,30.03,WSW,248,4.0,12.0,82,0.00,,---,0.00,VWS V14.01,2013-03-02 19:15:00,
2013-03-02 14:20:00,27.4,22.6,30.02,WSW,248,4.0,10.0,82,0.00,,---,0.00,VWS V14.01,2013-03-02 19:20:00,
2013-03-02 14:25:00,27.4,22.6,30.02,WSW,248,3.0,10.0,82,0.00,,---,0.00,VWS V14.01,2013-03-02 19:25:00,
2013-03-02 14:30:00,27.4,22.9,30.02,WSW,248,2.0,11.0,83,0.00,,---,0.00,VWS V14.01,2013-03-02 19:30:00,
2013-03-02 14:35:00,27.2,22.7,30.03,WSW,248,4.0,11.0,83,0.00,,---,0.00,VWS V14.01,2013-03-02 19:35:00,
2013-03-02 14:40:00,26.9,22.4,30.03,WSW,248,4.0,10.0,83,0.00,,---,0.00,VWS V14.01,2013-03-02 19:40:00,
2013-03-02 14:45:00,26.7,22.0,30.03,WSW,248,4.0,9.0,82,0.00,,---,0.00,VWS V14.01,2013-03-02 19:45:00,
2013-03-02 14:50:00,26.7,22.0,30.03,WSW,248,2.0,6.0,82,0.00,,---,0.00,VWS V14.01,2013-03-02 19:50:00,
2013-03-02 14:55:00,26.8,22.0,30.03,WSW,248,2.0,12.0,82,0.00,,---,0.00,VWS V14.01,2013-03-02 19:55:00,
2013-03-02 15:00:00,27.0,22.2,30.03,WSW,248,4.0,12.0,82,0.00,,---,0.00,VWS V14.01,2013-03-02 20:00:00,
2013-03-02 15:05:00,27.0,22.0,30.03,WSW,248,6.0,14.0,81,0.00,,---,0.00,VWS V14.01,2013-03-02 20:05:00,
2013-03-02 15:10:00,27.1,22.1,30.03,WSW,248,4.0,10.0,81,0.00,,---,0.00,VWS V14.01,2013-03-02 20:10:00,
2013-03-02 15:15:00,27.2,22.4,30.02,WSW,248,3.0,10.0,82,0.00,,---,0.00,VWS V14.01,2013-03-02 20:15:00,
2013-03-02 15:20:00,27.3,22.2,30.02,WSW,248,2.0,11.0,81,0.00,,---,0.00,VWS V14.01,2013-03-02 20:20:00,
2013-03-02 15:25:00,27.4,22.4,30.03,WSW,248,2.0,7.0,81,0.00,,---,0.00,VWS V14.01,2013-03-02 20:25:00,
2013-03-02 15:30:00,27.4,22.9,30.03,WSW,248,2.0,6.0,83,0.00,,---,0.00,VWS V14.01,2013-03-02 20:30:00,
2013-03-02 15:35:00,27.0,21.7,30.02,WSW,248,6.0,13.0,80,0.00,,---,0.00,VWS V14.01,2013-03-02 20:35:00,
2013-03-02 15:40:00,26.9,21.9,30.02,WSW,248,4.0,11.0,81,0.00,,---,0.00,VWS V14.01,2013-03-02 20:40:00,
2013-03-02 15:45:00,27.0,21.4,30.02,SW,225,1.0,5.0,79,0.00,,---,0.00,VWS V14.01,2013-03-02 20:45:00,
2013-03-02 15:50:00,27.0,21.4,30.02,WSW,248,2.0,7.0,79,0.00,,---,0.00,VWS V14.01,2013-03-02 20:50:00,
2013-03-02 15:55:00,27.0,21.7,30.03,WSW,248,4.0,11.0,80,0.00,,---,0.00,VWS V14.01,2013-03-02 20:55:00,
2013-03-02 16:00:00,26.8,21.5,30.03,WSW,248,4.0,11.0,80,0.00,,---,0.00,VWS V14.01,2013-03-02 21:00:00,
2013-03-02 16:05:00,26.7,21.4,30.03,WSW,248,3.0,7.0,80,0.00,,---,0.00,VWS V14.01,2013-03-02 21:05:00,
2013-03-02 16:10:00,26.6,21.3,30.03,WSW,248,3.0,6.0,80,0.00,,---,0.00,VWS V14.01,2013-03-02 21:10:00,
2013-03-02 16:15:00,26.5,21.8,30.03,WSW,248,3.0,8.0,82,0.00,,---,0.00,VWS V14.01,2013-03-02 21:15:00,
2013-03-02 16:20:00,26.4,22.0,30.03,WSW,248,2.0,6.0,83,0.00,,---,0.00,VWS V14.01,2013-03-02 21:20:00,
2013-03-02 16:25:00,26.2,22.0,30.03,WSW,248,3.0,9.0,84,0.00,,---,0.00,VWS V14.01,2013-03-02 21:25:00,
2013-03-02 16:30:00,26.1,21.9,30.03,WSW,248,3.0,6.0,84,0.00,,---,0.00,VWS V14.01,2013-03-02 21:30:00,
2013-03-02 16:35:00,26.0,21.8,30.03,WSW,248,1.0,5.0,84,0.00,,---,0.00,VWS V14.01,2013-03-02 21:35:00,
2013-03-02 16:40:00,26.1,22.2,30.03,WSW,248,2.0,10.0,85,0.00,,---,0.00,VWS V14.01,2013-03-02 21:40:00,
2013-03-02 16:45:00,26.0,22.1,30.03,WSW,248,3.0,12.0,85,0.00,,---,0.00,VWS V14.01,2013-03-02 21:45:00,
2013-03-02 16:50:00,26.0,22.4,30.03,WSW,248,3.0,6.0,86,0.00,,---,0.00,VWS V14.01,2013-03-02 21:50:00,
2013-03-02 16:55:00,25.9,22.3,30.03,WSW,248,4.0,7.0,86,0.00,,---,0.00,VWS V14.01,2013-03-02 21:55:00,
2013-03-02 17:00:00,25.9,22.3,30.03,SW,225,1.0,5.0,86,0.00,,---,0.00,VWS V14.01,2013-03-02 22:00:00,
2013-03-02 17:05:00,26.0,22.1,30.03,WSW,248,2.0,10.0,85,0.00,,---,0.00,VWS V14.01,2013-03-02 22:05:00,
2013-03-02 17:10:00,26.0,22.1,30.03,WSW,248,2.0,6.0,85,0.00,,---,0.00,VWS V14.01,2013-03-02 22:10:00,
2013-03-02 17:15:00,25.9,22.0,30.03,WSW,248,2.0,7.0,85,0.00,,---,0.00,VWS V14.01,2013-03-02 22:15:00,
2013-03-02 17:20:00,26.0,21.8,30.03,WSW,248,2.0,6.0,84,0.00,,---,0.00,VWS V14.01,2013-03-02 22:20:00,
2013-03-02 17:25:00,26.0,22.1,30.03,West,270,2.0,7.0,85,0.00,,---,0.00,VWS V14.01,2013-03-02 22:25:00,
2013-03-02 17:30:00,26.0,22.1,30.04,WSW,248,2.0,7.0,85,0.00,,---,0.00,VWS V14.01,2013-03-02 22:30:00,
2013-03-02 17:35:00,25.8,22.2,30.04,WSW,248,4.0,9.0,86,0.00,,---,0.00,VWS V14.01,2013-03-02 22:35:00,
2013-03-02 17:40:00,25.8,22.2,30.04,WSW,248,1.0,10.0,86,0.00,,---,0.00,VWS V14.01,2013-03-02 22:40:00,
2013-03-02 17:45:00,25.8,21.6,30.04,WSW,248,5.0,12.0,84,0.00,,---,0.00,VWS V14.01,2013-03-02 22:45:00,
2013-03-02 17:50:00,25.8,21.6,30.04,West,270,3.0,7.0,84,0.00,,---,0.00,VWS V14.01,2013-03-02 22:50:00,
2013-03-02 17:55:00,25.8,21.6,30.04,WSW,248,3.0,10.0,84,0.00,,---,0.00,VWS V14.01,2013-03-02 22:55:00,
2013-03-02 18:00:00,25.7,21.5,30.05,WSW,248,3.0,7.0,84,0.00,,---,0.00,VWS V14.01,2013-03-02 23:00:00,
2013-03-02 18:05:00,25.5,21.1,30.04,WSW,248,4.0,8.0,83,0.00,,---,0.00,VWS V14.01,2013-03-02 23:05:00,
2013-03-02 18:10:00,25.5,21.1,30.04,West,270,1.0,10.0,83,0.00,,---,0.00,VWS V14.01,2013-03-02 23:10:00,
2013-03-02 18:15:00,25.4,21.0,30.05,WSW,248,1.0,4.0,83,0.00,,---,0.00,VWS V14.01,2013-03-02 23:15:00,
2013-03-02 18:20:00,25.4,20.7,30.05,WSW,248,3.0,7.0,82,0.00,,---,0.00,VWS V14.01,2013-03-02 23:20:00,
2013-03-02 18:25:00,25.3,20.9,30.05,West,270,1.0,4.0,83,0.00,,---,0.00,VWS V14.01,2013-03-02 23:25:00,
2013-03-02 18:30:00,25.3,20.6,30.05,WSW,248,1.0,5.0,82,0.00,,---,0.00,VWS V14.01,2013-03-02 23:30:00,
2013-03-02 18:35:00,25.3,20.6,30.06,WSW,248,1.0,5.0,82,0.00,,---,0.00,VWS V14.01,2013-03-02 23:35:00,
2013-03-02 18:40:00,25.3,20.6,30.06,WSW,248,1.0,5.0,82,0.00,,---,0.00,VWS V14.01,2013-03-02 23:40:00,
2013-03-02 18:45:00,25.2,20.5,30.06,WSW,248,2.0,5.0,82,0.00,,---,0.00,VWS V14.01,2013-03-02 23:45:00,
2013-03-02 18:50:00,25.3,20.6,30.06,WSW,248,1.0,3.0,82,0.00,,---,0.00,VWS V14.01,2013-03-02 23:50:00,
2013-03-02 18:55:00,25.3,20.9,30.06,WSW,248,0.0,3.0,83,0.00,,---,0.00,VWS V14.01,2013-03-02 23:55:00,
2013-03-02 19:00:00,25.3,20.9,30.06,WSW,248,1.0,2.0,83,0.00,,---,0.00,VWS V14.01,2013-03-03 00:00:00,
2013-03-02 19:05:00,25.3,20.9,30.06,West,270,1.0,4.0,83,0.00,,---,0.00,VWS V14.01,2013-03-03 00:05:00,
2013-03-02 19:10:00,25.3,20.9,30.06,West,270,1.0,3.0,83,0.00,,---,0.00,VWS V14.01,2013-03-03 00:10:00,
2013-03-02 19:15:00,25.3,21.1,30.06,WSW,248,0.0,3.0,84,0.00,,---,0.00,VWS V14.01,2013-03-03 00:15:00,
2013-03-02 19:20:00,25.4,21.2,30.06,WSW,248,0.0,3.0,84,0.00,,---,0.00,VWS V14.01,2013-03-03 00:20:00,
2013-03-02 19:25:00,25.4,21.5,30.06,WSW,248,1.0,4.0,85,0.00,,---,0.00,VWS V14.01,2013-03-03 00:25:00,
2013-03-02 19:30:00,25.4,21.5,30.06,WSW,248,1.0,3.0,85,0.00,,---,0.00,VWS V14.01,2013-03-03 00:30:00,
2013-03-02 19:35:00,25.4,21.5,30.06,WSW,248,1.0,4.0,85,0.00,,---,0.00,VWS V14.01,2013-03-03 00:35:00,
2013-03-02 19:40:00,25.4,21.5,30.06,WSW,248,0.0,2.0,85,0.00,,---,0.00,VWS V14.01,2013-03-03 00:40:00,
2013-03-02 19:45:00,25.5,21.9,30.06,WSW,248,0.0,2.0,86,0.00,,---,0.00,VWS V14.01,2013-03-03 00:45:00,
2013-03-02 19:50:00,25.5,21.9,30.06,WSW,248,0.0,4.0,86,0.00,,---,0.00,VWS V14.01,2013-03-03 00:50:00,
2013-03-02 19:55:00,25.5,21.9,30.06,West,270,1.0,5.0,86,0.00,,---,0.00,VWS V14.01,2013-03-03 00:55:00,
2013-03-02 20:00:00,25.5,21.9,30.05,West,270,1.0,4.0,86,0.00,,---,0.00,VWS V14.01,2013-03-03 01:00:00,
2013-03-02 20:05:00,25.5,21.9,30.06,WSW,248,1.0,6.0,86,0.00,,---,0.00,VWS V14.01,2013-03-03 01:05:00,
2013-03-02 20:10:00,25.5,21.9,30.06,WSW,248,0.0,2.0,86,0.00,,---,0.00,VWS V14.01,2013-03-03 01:10:00,
2013-03-02 20:15:00,25.5,21.9,30.06,WSW,248,1.0,4.0,86,0.00,,---,0.00,VWS V14.01,2013-03-03 01:15:00,
2013-03-02 20:20:00,25.6,22.0,30.06,WSW,248,1.0,4.0,86,0.00,,---,0.00,VWS V14.01,2013-03-03 01:20:00,
2013-03-02 20:25:00,25.6,22.0,30.06,SW,225,1.0,3.0,86,0.00,,---,0.00,VWS V14.01,2013-03-03 01:25:00,
2013-03-02 20:30:00,25.6,22.3,30.06,West,270,0.0,3.0,87,0.00,,---,0.00,VWS V14.01,2013-03-03 01:30:00,
2013-03-02 20:35:00,25.6,22.3,30.06,WSW,248,1.0,3.0,87,0.00,,---,0.00,VWS V14.01,2013-03-03 01:35:00,
2013-03-02 20:40:00,25.6,22.3,30.06,West,270,2.0,5.0,87,0.00,,---,0.00,VWS V14.01,2013-03-03 01:40:00,
2013-03-02 20:45:00,25.7,22.4,30.06,WSW,248,2.0,6.0,87,0.00,,---,0.00,VWS V14.01,2013-03-03 01:45:00,
2013-03-02 20:50:00,25.7,22.4,30.06,WSW,248,2.0,5.0,87,0.00,,---,0.00,VWS V14.01,2013-03-03 01:50:00,
2013-03-02 20:55:00,25.7,22.4,30.06,WSW,248,1.0,4.0,87,0.00,,---,0.00,VWS V14.01,2013-03-03 01:55:00,
2013-03-02 21:00:00,25.7,22.4,30.07,WSW,248,1.0,5.0,87,0.00,,---,0.00,VWS V14.01,2013-03-03 02:00:00,
2013-03-02 21:05:00,25.7,22.4,30.06,WSW,248,1.0,4.0,87,0.00,,---,0.00,VWS V14.01,2013-03-03 02:05:00,
2013-03-02 21:10:00,25.7,22.6,30.06,West,270,1.0,3.0,88,0.00,,---,0.00,VWS V14.01,2013-03-03 02:10:00,
2013-03-02 21:15:00,25.7,22.6,30.07,West,270,0.0,2.0,88,0.00,,---,0.00,VWS V14.01,2013-03-03 02:15:00,
2013-03-02 21:20:00,25.7,22.6,30.07,West,270,0.0,2.0,88,0.00,,---,0.00,VWS V14.01,2013-03-03 02:20:00,
2013-03-02 21:25:00,25.7,22.6,30.07,WSW,248,2.0,6.0,88,0.00,,---,0.00,VWS V14.01,2013-03-03 02:25:00,
2013-03-02 21:30:00,25.7,22.6,30.07,West,270,2.0,6.0,88,0.00,,---,0.00,VWS V14.01,2013-03-03 02:30:00,
2013-03-02 21:35:00,25.8,22.7,30.07,West,270,1.0,5.0,88,0.00,,---,0.00,VWS V14.01,2013-03-03 02:35:00,
2013-03-02 21:40:00,25.8,22.7,30.07,West,270,2.0,5.0,88,0.00,,---,0.00,VWS V14.01,2013-03-03 02:40:00,
2013-03-02 21:45:00,25.8,22.7,30.07,WSW,248,1.0,4.0,88,0.00,,---,0.00,VWS V14.01,2013-03-03 02:45:00,
2013-03-02 21:50:00,25.8,23.0,30.07,WSW,248,0.0,3.0,89,0.00,,---,0.00,VWS V14.01,2013-03-03 02:50:00,
2013-03-02 21:55:00,25.8,23.0,30.07,WSW,248,1.0,4.0,89,0.00,,---,0.00,VWS V14.01,2013-03-03 02:55:00,
2013-03-02 22:00:00,25.8,23.0,30.07,WSW,248,2.0,7.0,89,0.00,,---,0.00,VWS V14.01,2013-03-03 03:00:00,
2013-03-02 22:05:00,25.8,23.0,30.07,West,270,2.0,5.0,89,0.00,,---,0.00,VWS V14.01,2013-03-03 03:05:00,
2013-03-02 22:10:00,25.9,23.1,30.06,WSW,248,0.0,4.0,89,0.00,,---,0.00,VWS V14.01,2013-03-03 03:10:00,
2013-03-02 22:15:00,25.8,23.0,30.06,West,270,1.0,5.0,89,0.00,,---,0.00,VWS V14.01,2013-03-03 03:15:00,
2013-03-02 22:20:00,25.9,23.1,30.06,West,270,1.0,3.0,89,0.00,,---,0.00,VWS V14.01,2013-03-03 03:20:00,
2013-03-02 22:25:00,25.9,23.1,30.06,West,270,0.0,3.0,89,0.00,,---,0.00,VWS V14.01,2013-03-03 03:25:00,
2013-03-02 22:30:00,25.9,23.4,30.06,West,270,1.0,4.0,90,0.00,,---,0.00,VWS V14.01,2013-03-03 03:30:00,
2013-03-02 22:35:00,25.9,23.4,30.06,West,270,1.0,4.0,90,0.00,,---,0.00,VWS V14.01,2013-03-03 03:35:00,
2013-03-02 22:40:00,25.9,23.4,30.06,West,270,2.0,10.0,90,0.00,,---,0.00,VWS V14.01,2013-03-03 03:40:00,
2013-03-02 22:45:00,26.0,23.5,30.06,WSW,248,1.0,6.0,90,0.00,,---,0.00,VWS V14.01,2013-03-03 03:45:00,
2013-03-02 22:50:00,26.0,23.5,30.06,WSW,248,1.0,4.0,90,0.00,,---,0.00,VWS V14.01,2013-03-03 03:50:00,
2013-03-02 22:55:00,26.0,23.5,30.06,WSW,248,2.0,5.0,90,0.00,,---,0.00,VWS V14.01,2013-03-03 03:55:00,
2013-03-02 23:00:00,25.9,23.6,30.06,West,270,1.0,4.0,91,0.00,,---,0.00,VWS V14.01,2013-03-03 04:00:00,
2013-03-02 23:05:00,25.9,23.6,30.06,West,270,1.0,4.0,91,0.00,,---,0.00,VWS V14.01,2013-03-03 04:05:00,
2013-03-02 23:10:00,25.9,23.6,30.06,West,270,0.0,2.0,91,0.00,,---,0.00,VWS V14.01,2013-03-03 04:10:00,
2013-03-02 23:15:00,25.9,23.6,30.05,West,270,1.0,3.0,91,0.00,,---,0.00,VWS V14.01,2013-03-03 04:15:00,
2013-03-02 23:20:00,25.9,23.6,30.05,West,270,2.0,7.0,91,0.00,,---,0.00,VWS V14.01,2013-03-03 04:20:00,
2013-03-02 23:25:00,25.8,23.5,30.05,West,270,2.0,5.0,91,0.00,,---,0.00,VWS V14.01,2013-03-03 04:25:00,
2013-03-02 23:30:00,25.8,23.5,30.05,WSW,248,1.0,6.0,91,0.00,,---,0.00,VWS V14.01,2013-03-03 04:30:00,
2013-03-02 23:35:00,25.8,23.8,30.06,WSW,248,1.0,3.0,92,0.00,,---,0.00,VWS V14.01,2013-03-03 04:35:00,
2013-03-02 23:40:00,25.8,23.8,30.06,WSW,248,1.0,3.0,92,0.00,,---,0.00,VWS V14.01,2013-03-03 04:40:00,
2013-03-02 23:45:00,25.8,23.8,30.05,WSW,248,1.0,4.0,92,0.00,,---,0.00,VWS V14.01,2013-03-03 04:45:00,
2013-03-02 23:50:00,25.8,23.5,30.05,WSW,248,2.0,5.0,91,0.00,,---,0.00,VWS V14.01,2013-03-03 04:50:00,
2013-03-02 23:55:00,25.7,23.7,30.04,West,270,2.0,5.0,92,0.00,,---,0.00,VWS V14.01,2013-03-03 04:55:00,